Weather History for KANJ - November, 2011

Change the Weather History Date:

Monday, November 21, 2011

  Actual Average Record
Temperature  
Mean Temperature 28 °F 32 °F  
Max Temperature 33 °F 38 °F 63 °F (1913)
Min Temperature 23 °F 26 °F -1 °F (1895)
Degree Days  
Heating Degree Days 37 33  
Month to date heating degree days 533 611  
Since 1 July heating degree days 1244 1616  
Moisture  
Dew Point 20 °F    
Average Humidity 72    
Maximum Humidity 81    
Minimum Humidity 63    
Precipitation  
Precipitation T in 0.12 in 1.52 in (1990)
Month to date precipitation 3.59 2.38  
Year to date precipitation 35.71 29.17  
Snow  
Snow T in 0.60 in 10.00 in (1929)
Month to date snowfall 6.7 8.6  
Since 1 July snowfall 6.7 10.2  
Snow Depth T in    
Sea Level Pressure  
Sea Level Pressure 30.37 in    
Wind  
Wind Speed 4 mph (SE)    
Max Wind Speed 9 mph    
Max Gust Speed 13 mph    
Visibility 10 miles    
Events      
T = Trace of Precipitation, MM = Missing Value Source: NWS Daily Summary

Daily Weather History Graph

Daily Weather History Graph

Search for Another Location

Airport or City:

Trip Planner

Search our weather history database for the weather conditions in past years. The results will help you decide how hot, cold, wet, or windy it might be!

Date:

Astronomy

Nov. 21, 2011 Rise Set
Actual Time 7:47 AM EST 4:58 PM EST
Civil Twilight 7:13 AM EST 5:32 PM EST
Nautical Twilight 6:36 AM EST 6:09 PM EST
Astronomical Twilight 6:01 AM EST 6:44 PM EST
Moon 3:12 AM EST (11/21) 2:31 PM EST (11/21)
Length of Visible Light 10h 18m
Length of Day
9h 11m
Waning Crescent, 18% of the Moon is Illuminated
Nov 21
Waning Crescent
Nov 25
New
Dec 2
First Quarter
Dec 10
Full
Dec 17
Last Quarter

Hourly Weather History & Observations

Time (EST) Temp. Windchill Dew Point Humidity Pressure Visibility Wind Dir Wind Speed Gust Speed Precip Events Conditions
12:55 AM 24.1 °F 19.7 °F 18.0 °F 77% 30.40 in 10.0 mi East 3.5 mph - N/A   Overcast
1:55 AM 24.1 °F 19.7 °F 18.0 °F 77% 30.39 in 10.0 mi East 3.5 mph - N/A   Overcast
2:34 AM 24.8 °F 20.5 °F 17.6 °F 74% 30.37 in 10.0 mi East 3.5 mph - N/A   Overcast
2:55 AM 24.1 °F 19.7 °F 17.1 °F 75% 30.40 in 10.0 mi East 3.5 mph - N/A   Overcast
3:55 AM 24.1 °F 18.2 °F 17.1 °F 75% 30.40 in 10.0 mi East 4.6 mph - N/A   Overcast
4:14 AM 24.8 °F 17.9 °F 17.6 °F 74% 30.37 in 10.0 mi East 5.8 mph - N/A   Overcast
4:55 AM 23.0 °F 17.0 °F 17.1 °F 78% 30.40 in 10.0 mi East 4.6 mph - N/A   Overcast
5:55 AM 23.0 °F - 18.0 °F 81% 30.42 in 10.0 mi Calm Calm - N/A   Overcast
6:02 AM 23.0 °F 18.4 °F 17.6 °F 80% 30.38 in 10.0 mi East 3.5 mph - N/A   Overcast
6:55 AM 23.0 °F 17.0 °F 18.0 °F 81% 30.41 in 10.0 mi SE 4.6 mph - N/A   Overcast
7:44 AM 24.8 °F - 19.4 °F 80% 30.39 in 10.0 mi Calm Calm - N/A   Overcast
7:55 AM 24.1 °F 19.7 °F 19.0 °F 81% 30.41 in 10.0 mi ESE 3.5 mph - N/A   Overcast
8:55 AM 25.0 °F - 19.9 °F 81% 30.43 in 10.0 mi Calm Calm - N/A   Overcast
9:47 AM 26.6 °F 20.0 °F 19.4 °F 74% 30.39 in 10.0 mi SSE 5.8 mph - N/A   Overcast
9:55 AM 26.1 °F 19.4 °F 19.0 °F 75% 30.43 in 10.0 mi SE 5.8 mph - N/A   Overcast
10:55 AM 27.0 °F 20.5 °F 19.0 °F 72% 30.43 in 10.0 mi ESE 5.8 mph - N/A   Overcast
11:55 AM 28.0 °F 21.7 °F 19.0 °F 69% 30.38 in 10.0 mi ESE 5.8 mph - N/A   Overcast
12:55 PM 28.9 °F 21.9 °F 19.0 °F 67% 30.37 in 10.0 mi SE 6.9 mph - N/A   Overcast
1:26 PM 28.4 °F 21.2 °F 19.4 °F 69% 30.32 in 10.0 mi SE 6.9 mph - N/A   Overcast
1:55 PM 30.0 °F 24.1 °F 19.9 °F 66% 30.34 in 10.0 mi SSE 5.8 mph - N/A   Overcast
2:55 PM 30.0 °F 24.1 °F 19.9 °F 66% 30.34 in 10.0 mi South 5.8 mph - N/A   Overcast
3:55 PM 30.9 °F 26.2 °F 21.0 °F 67% 30.33 in 10.0 mi South 4.6 mph - N/A   Overcast
4:21 PM 30.2 °F 24.3 °F 21.2 °F 69% 30.30 in 10.0 mi South 5.8 mph - N/A   Overcast
4:44 PM 30.2 °F 25.4 °F 21.2 °F 69% 30.30 in 10.0 mi South 4.6 mph - N/A   Overcast
4:55 PM 30.9 °F 26.2 °F 19.9 °F 64% 30.33 in 10.0 mi South 4.6 mph - N/A   Overcast
5:55 PM 30.9 °F - 21.0 °F 67% 30.35 in 10.0 mi Calm Calm - N/A   Overcast
6:55 PM 30.9 °F - 21.0 °F 67% 30.34 in 10.0 mi Calm Calm - N/A   Overcast
7:55 PM 30.0 °F - 21.9 °F 72% 30.35 in 10.0 mi Calm Calm - N/A   Overcast
8:55 PM 30.9 °F 25.2 °F 21.9 °F 69% 30.35 in 10.0 mi SW 5.8 mph - N/A   Overcast
9:55 PM 32.0 °F 27.5 °F 23.0 °F 69% 30.36 in 10.0 mi West 4.6 mph - N/A   Overcast
10:55 PM 32.0 °F 26.4 °F 24.1 °F 73% 30.35 in 10.0 mi NW 5.8 mph - N/A   Overcast
11:55 PM 32.0 °F - 24.1 °F 73% 30.35 in 10.0 mi Calm Calm - N/A   Overcast